Terminal Aerodrome Forecast
Issued by NWS

Home | Current Version | Previous Version | Text Only | Print | Product List | Glossary On
Versions: 1 2 3 4 5 6 7 8 9 10 11 12 13 14 15 16 17 18
000
FTUS41 KCAR 222300
TAFPQI
TAF
KPQI 222320Z 2300/2324 00000KT P6SM FEW040 OVC080
     FM230900 36003KT P6SM BKN035
     FM231200 02003KT P6SM SCT035 BKN070
      AMD LTD TO CLD VIS AND WIND=

USA.gov is the U.S. government's official web portal to all federal, state and local government web resources and services.